�������l�o���
Date,Time,MP-1(��Sv/h),MP-2(��Sv/h),MP-3(��Sv/h),MP-4(��Sv/h),MP-5(��Sv/h),MP-6(��Sv/h),MP-7(��Sv/h),MP-8(��Sv/h),����,����(m/s),���J
2020/01/18,00:00,0.698,0.996,0.657,1.244,0.877,0.400,0.701,0.668,�k�k��,6.6,��
2020/01/18,00:10,0.699,0.997,0.657,1.246,0.877,0.401,0.704,0.667,�k��,6.0,��
2020/01/18,00:20,0.700,0.997,0.656,1.244,0.878,0.401,0.701,0.668,�k��,6.0,��
2020/01/18,00:30,0.699,0.997,0.655,1.243,0.875,0.401,0.701,0.668,�k��,6.7,��
2020/01/18,00:40,0.700,0.997,0.657,1.244,0.878,0.400,0.702,0.665,�k�k��,6.1,��
2020/01/18,00:50,0.699,0.995,0.658,1.244,0.877,0.401,0.701,0.668,�k�k��,6.7,��
2020/01/18,01:00,0.699,0.997,0.659,1.244,0.875,0.402,0.701,0.666,�k�k��,7.1,��
2020/01/18,01:10,0.699,0.997,0.658,1.245,0.878,0.400,0.701,0.668,�k�k��,6.6,��
2020/01/18,01:20,0.699,0.995,0.656,1.243,0.876,0.403,0.700,0.667,�k�k��,6.6,��
2020/01/18,01:30,0.700,0.997,0.658,1.245,0.878,0.399,0.702,0.669,�k�k��,6.3,��
2020/01/18,01:40,0.698,0.997,0.659,1.243,0.877,0.400,0.701,0.667,�k�k��,6.9,��
2020/01/18,01:50,0.699,0.999,0.658,1.243,0.877,0.402,0.702,0.669,�k�k��,6.4,��
2020/01/18,02:00,0.698,0.995,0.656,1.245,0.878,0.401,0.701,0.667,�k�k��,6.4,��
2020/01/18,02:10,0.699,0.995,0.658,1.247,0.876,0.399,0.702,0.669,�k�k��,7.1,��
2020/01/18,02:20,0.701,0.997,0.658,1.244,0.875,0.401,0.703,0.668,�k�k��,7.2,��
2020/01/18,02:30,0.699,0.996,0.658,1.242,0.877,0.401,0.701,0.670,�k�k��,6.9,��
2020/01/18,02:40,0.701,0.996,0.659,1.245,0.876,0.399,0.702,0.668,�k�k��,7.1,��
2020/01/18,02:50,0.699,0.997,0.657,1.245,0.880,0.401,0.702,0.667,�k�k��,7.8,��
2020/01/18,03:00,0.698,0.997,0.658,1.242,0.877,0.399,0.703,0.668,�k�k��,8.0,��
2020/01/18,03:10,0.700,0.997,0.655,1.244,0.877,0.401,0.703,0.668,�k�k��,6.9,��
2020/01/18,03:20,0.701,0.995,0.656,1.243,0.875,0.400,0.704,0.669,�k�k��,6.0,��
2020/01/18,03:30,0.700,0.996,0.657,1.242,0.877,0.399,0.701,0.668,�k�k��,6.0,��
2020/01/18,03:40,0.700,0.998,0.656,1.245,0.876,0.401,0.703,0.667,�k�k��,6.6,��
2020/01/18,03:50,0.700,0.996,0.657,1.244,0.877,0.400,0.701,0.667,�k�k��,6.6,��
2020/01/18,04:00,0.700,0.998,0.658,1.242,0.875,0.400,0.702,0.669,�k��,6.6,��
2020/01/18,04:10,0.700,0.995,0.656,1.245,0.877,0.400,0.704,0.668,�k�k��,7.1,��
2020/01/18,04:20,0.699,0.995,0.658,1.242,0.875,0.399,0.703,0.668,�k�k��,7.4,��
2020/01/18,04:30,0.699,0.996,0.657,1.243,0.876,0.400,0.703,0.668,�k�k��,7.4,��
2020/01/18,04:40,0.699,0.998,0.657,1.242,0.877,0.401,0.703,0.668,�k�k��,7.7,��
2020/01/18,04:50,0.699,0.996,0.656,1.244,0.876,0.400,0.703,0.669,�k�k��,8.2,��
2020/01/18,05:00,0.699,0.996,0.655,1.244,0.875,0.400,0.701,0.667,�k�k��,6.7,��
2020/01/18,05:10,0.700,0.997,0.658,1.242,0.874,0.400,0.702,0.669,�k�k��,7.1,��
2020/01/18,05:20,0.699,0.996,0.655,1.242,0.877,0.399,0.701,0.668,�k�k��,6.9,��
2020/01/18,05:30,0.698,0.995,0.656,1.241,0.877,0.398,0.702,0.668,�k�k��,6.7,��
2020/01/18,05:40,0.698,0.997,0.657,1.244,0.877,0.400,0.702,0.669,�k�k��,6.4,��
2020/01/18,05:50,0.699,0.995,0.655,1.243,0.876,0.400,0.701,0.669,�k�k��,6.7,��
2020/01/18,06:00,0.699,0.999,0.657,1.243,0.876,0.401,0.703,0.668,�k��,7.4,��
2020/01/18,06:10,0.700,0.996,0.656,1.242,0.875,0.399,0.701,0.668,�k�k��,7.2,��
2020/01/18,06:20,0.698,0.996,0.657,1.243,0.875,0.401,0.703,0.670,�k�k��,6.4,��
2020/01/18,06:30,0.699,0.998,0.656,1.245,0.875,0.399,0.703,0.668,�k�k��,6.3,��
2020/01/18,06:40,0.698,0.999,0.656,1.243,0.878,0.400,0.704,0.669,�k��,6.3,��
2020/01/18,06:50,0.699,0.996,0.657,1.243,0.875,0.399,0.702,0.667,�k��,6.9,��
2020/01/18,07:00,0.698,0.996,0.656,1.244,0.876,0.399,0.701,0.668,�k��,6.7,��
2020/01/18,07:10,0.700,0.996,0.657,1.243,0.876,0.401,0.701,0.667,�k��,6.9,��
2020/01/18,07:20,0.697,0.996,0.657,1.244,0.877,0.399,0.702,0.668,�k�k��,7.1,��
2020/01/18,07:30,0.699,0.997,0.656,1.243,0.877,0.399,0.703,0.670,�k��,7.4,��
2020/01/18,07:40,0.699,0.996,0.656,1.244,0.877,0.400,0.704,0.668,�k�k��,8.6,��
2020/01/18,07:50,0.701,1.000,0.656,1.245,0.876,0.400,0.704,0.669,�k�k��,7.7,��
2020/01/18,08:00,0.699,0.995,0.655,1.244,0.875,0.400,0.704,0.670,�k�k��,8.0,��
2020/01/18,08:10,0.700,0.997,0.656,1.243,0.878,0.399,0.704,0.668,�k�k��,8.8,��
2020/01/18,08:20,0.699,0.996,0.655,1.243,0.878,0.398,0.703,0.669,�k�k��,7.4,��
2020/01/18,08:30,0.697,0.997,0.656,1.242,0.875,0.400,0.703,0.669,�k�k��,7.4,��
2020/01/18,08:40,0.699,0.996,0.652,1.245,0.877,0.402,0.703,0.669,�k�k��,7.1,��
2020/01/18,08:50,0.701,0.995,0.655,1.242,0.880,0.399,0.703,0.670,�k�k��,8.6,��
2020/01/18,09:00,0.699,0.996,0.652,1.245,0.879,0.399,0.703,0.669,�k�k��,7.7,��
2020/01/18,09:10,0.700,0.996,0.654,1.245,0.877,0.400,0.703,0.669,�k�k��,8.3,��
2020/01/18,09:20,0.699,0.993,0.655,1.246,0.877,0.399,0.702,0.670,�k�k��,7.2,��
2020/01/18,09:30,0.700,0.994,0.654,1.244,0.876,0.400,0.704,0.668,�k�k��,9.1,�L
2020/01/18,09:40,0.701,0.992,0.655,1.243,0.878,0.401,0.703,0.670,�k�k��,7.1,��
2020/01/18,09:50,0.701,0.994,0.655,1.246,0.878,0.400,0.702,0.669,�k�k��,6.4,��
2020/01/18,10:00,0.698,0.993,0.655,1.243,0.875,0.401,0.702,0.669,�k��,6.3,��
2020/01/18,10:10,0.700,0.994,0.655,1.244,0.878,0.401,0.704,0.668,�k�k��,9.1,��
2020/01/18,10:20,0.700,0.990,0.657,1.244,0.877,0.400,0.703,0.670,�k�k��,8.8,�L
2020/01/18,10:30,0.701,0.994,0.656,1.244,0.878,0.400,0.704,0.669,�k�k��,9.7,��
2020/01/18,10:40,0.699,0.993,0.657,1.246,0.877,0.399,0.703,0.667,�k�k��,10.1,��
2020/01/18,10:50,0.698,0.996,0.657,1.243,0.879,0.399,0.703,0.667,�k�k��,9.3,��
2020/01/18,11:00,0.700,0.993,0.656,1.245,0.879,0.399,0.704,0.668,�k�k��,9.4,�L
2020/01/18,11:10,0.697,0.988,0.653,1.243,0.876,0.399,0.702,0.668,�k��,8.8,�L
2020/01/18,11:20,0.697,0.986,0.651,1.240,0.873,0.399,0.701,0.668,�k��,8.5,�L
2020/01/18,11:30,0.699,0.984,0.652,1.239,0.875,0.398,0.701,0.666,�k��,7.2,��
2020/01/18,11:40,0.697,0.988,0.653,1.239,0.872,0.397,0.701,0.668,�k�k��,6.4,��
2020/01/18,11:50,0.695,0.985,0.653,1.240,0.874,0.400,0.701,0.668,�k�k��,7.5,��
2020/01/18,12:00,0.696,0.988,0.652,1.237,0.873,0.398,0.700,0.669,�k��,9.6,��
2020/01/18,12:10,0.697,0.991,0.654,1.240,0.875,0.402,0.703,0.666,�k�k��,10.7,�L
2020/01/18,12:20,0.696,0.992,0.654,1.240,0.874,0.399,0.702,0.668,�k�k��,9.9,�L
2020/01/18,12:30,0.698,0.991,0.653,1.240,0.874,0.400,0.702,0.668,�k�k��,8.8,�L
2020/01/18,12:40,0.696,0.991,0.654,1.240,0.874,0.400,0.703,0.669,�k�k��,7.8,�L
2020/01/18,12:50,0.697,0.989,0.654,1.240,0.873,0.399,0.700,0.669,�k�k��,9.7,�L
2020/01/18,13:00,0.696,0.989,0.654,1.241,0.874,0.399,0.701,0.669,�k�k��,7.4,�L
2020/01/18,13:10,0.697,0.990,0.652,1.238,0.873,0.398,0.702,0.666,�k�k��,9.9,�L
2020/01/18,13:20,0.694,0.987,0.652,1.238,0.872,0.401,0.702,0.668,�k�k��,9.3,�L
2020/01/18,13:30,0.694,0.988,0.653,1.240,0.872,0.401,0.702,0.668,�k�k��,8.0,�L
2020/01/18,13:40,0.695,0.987,0.652,1.238,0.872,0.400,0.702,0.669,�k�k��,8.9,�L
2020/01/18,13:50,0.694,0.984,0.651,1.234,0.871,0.400,0.703,0.668,�k��,8.3,�L
2020/01/18,14:00,0.697,0.985,0.649,1.238,0.871,0.399,0.702,0.668,�k�k��,8.2,�L
2020/01/18,14:10,0.694,0.982,0.652,1.238,0.872,0.400,0.701,0.667,�k��,9.1,�L
2020/01/18,14:20,0.693,0.987,0.652,1.238,0.872,0.401,0.702,0.668,�k�k��,8.6,�L
2020/01/18,14:30,0.694,0.985,0.651,1.237,0.871,0.401,0.703,0.667,�k�k��,8.2,�L
2020/01/18,14:40,0.694,0.984,0.653,1.237,0.871,0.399,0.701,0.669,�k�k��,8.8,�L
2020/01/18,14:50,0.692,0.986,0.654,1.237,0.872,0.400,0.701,0.667,�k�k��,9.3,�L
2020/01/18,15:00,0.693,0.985,0.651,1.237,0.869,0.401,0.702,0.669,�k�k��,10.1,��
2020/01/18,15:10,0.693,0.984,0.652,1.236,0.874,0.401,0.702,0.667,�k�k��,9.7,�L
2020/01/18,15:20,0.693,0.987,0.652,1.239,0.870,0.401,0.702,0.670,�k�k��,8.5,��
2020/01/18,15:30,0.695,0.986,0.651,1.239,0.870,0.401,0.702,0.668,�k�k��,9.1,�L
2020/01/18,15:40,0.692,0.989,0.653,1.240,0.869,0.401,0.702,0.668,�k�k��,9.1,�L
2020/01/18,15:50,0.696,0.988,0.653,1.236,0.871,0.400,0.703,0.668,�k�k��,8.0,��
2020/01/18,16:00,0.696,0.988,0.653,1.234,0.872,0.399,0.701,0.668,�k�k��,7.7,��
2020/01/18,16:10,0.697,0.988,0.652,1.239,0.872,0.400,0.702,0.667,�k�k��,8.2,��
2020/01/18,16:20,0.695,0.986,0.652,1.237,0.870,0.401,0.701,0.670,�k��,7.5,��
2020/01/18,16:30,0.697,0.987,0.652,1.239,0.869,0.399,0.702,0.669,�k��,8.9,�L
2020/01/18,16:40,0.696,0.988,0.653,1.239,0.872,0.399,0.702,0.669,�k��,8.0,�L
2020/01/18,16:50,0.695,1.000,0.653,1.241,0.873,0.399,0.702,0.667,�k�k��,8.0,�L
2020/01/18,17:00,0.696,0.990,0.654,1.237,0.872,0.400,0.704,0.670,�k�k��,9.1,�L
2020/01/18,17:10,0.696,0.989,0.653,1.240,0.872,0.399,0.704,0.669,�k�k��,7.5,�L
2020/01/18,17:20,0.695,0.989,0.653,1.240,0.872,0.399,0.702,0.668,�k�k��,8.3,�L
2020/01/18,17:30,0.696,0.989,0.653,1.239,0.870,0.400,0.701,0.669,�k�k��,7.8,�L
2020/01/18,17:40,0.696,0.989,0.654,1.238,0.870,0.402,0.702,0.670,�k�k��,7.2,�L
2020/01/18,17:50,0.698,0.989,0.653,1.238,0.872,0.403,0.701,0.668,�k�k��,8.2,�L
2020/01/18,18:00,0.698,0.988,0.653,1.238,0.872,0.403,0.700,0.668,�k�k��,8.6,�L
2020/01/18,18:10,0.697,0.987,0.654,1.237,0.867,0.404,0.701,0.668,�k�k��,8.3,�L
2020/01/18,18:20,0.696,0.984,0.652,1.239,0.872,0.401,0.701,0.668,�k��,9.1,�L
2020/01/18,18:30,0.695,0.986,0.653,1.242,0.869,0.400,0.701,0.667,�k�k��,8.0,�L
2020/01/18,18:40,0.694,0.982,0.652,1.239,0.870,0.399,0.700,0.667,�k�k��,9.1,�L
2020/01/18,18:50,0.695,0.981,0.651,1.238,0.870,0.401,0.700,0.668,�k�k��,9.1,�L
2020/01/18,19:00,0.695,0.981,0.650,1.237,0.868,0.399,0.700,0.668,�k�k��,9.1,�L
2020/01/18,19:10,0.696,0.982,0.651,1.239,0.869,0.399,0.701,0.666,�k�k��,9.1,�L
2020/01/18,19:20,0.696,0.985,0.652,1.238,0.868,0.399,0.700,0.668,�k�k��,8.9,�L
2020/01/18,19:30,0.693,0.985,0.653,1.236,0.866,0.401,0.702,0.669,�k�k��,8.8,�L
2020/01/18,19:40,0.693,0.985,0.652,1.236,0.870,0.400,0.701,0.666,�k�k��,8.8,�L
2020/01/18,19:50,0.693,0.983,0.651,1.238,0.867,0.400,0.700,0.668,�k�k��,8.0,�L
2020/01/18,20:00,0.694,0.986,0.653,1.237,0.870,0.400,0.700,0.668,�k�k��,8.5,��
2020/01/18,20:10,0.694,0.985,0.651,1.237,0.868,0.399,0.700,0.666,�k�k��,9.1,��
2020/01/18,20:20,0.694,0.984,0.651,1.238,0.868,0.399,0.701,0.666,�k�k��,7.7,��
2020/01/18,20:30,0.693,0.986,0.653,1.236,0.868,0.400,0.700,0.668,�k�k��,7.8,��
2020/01/18,20:40,0.693,0.986,0.653,1.236,0.867,0.399,0.699,0.667,�k�k��,7.4,��
2020/01/18,20:50,0.693,0.985,0.651,1.236,0.867,0.399,0.700,0.666,�k��,8.2,��
2020/01/18,21:00,0.693,0.986,0.651,1.234,0.868,0.401,0.701,0.668,�k�k��,8.0,��
2020/01/18,21:10,0.695,0.984,0.653,1.234,0.867,0.398,0.701,0.666,�k��,7.1,��
2020/01/18,21:20,0.693,0.985,0.653,1.237,0.866,0.398,0.701,0.665,�k��,8.8,��
2020/01/18,21:30,0.694,0.987,0.652,1.238,0.867,0.399,0.701,0.666,�k�k��,7.7,��
2020/01/18,21:40,0.692,0.985,0.653,1.235,0.868,0.399,0.702,0.667,�k�k��,8.6,��
2020/01/18,21:50,0.695,0.987,0.653,1.237,0.868,0.400,0.702,0.666,�k�k��,9.3,��
2020/01/18,22:00,0.692,0.986,0.652,1.236,0.871,0.399,0.699,0.666,�k��,8.9,��
2020/01/18,22:10,0.694,0.986,0.652,1.235,0.868,0.399,0.701,0.666,�k��,8.6,��
2020/01/18,22:20,0.694,0.987,0.653,1.237,0.870,0.399,0.700,0.666,�k�k��,8.0,��
2020/01/18,22:30,0.692,0.987,0.653,1.236,0.870,0.399,0.701,0.666,�k�k��,7.2,��
2020/01/18,22:40,0.693,0.988,0.652,1.238,0.869,0.398,0.700,0.667,�k��,6.3,��
2020/01/18,22:50,0.695,0.988,0.653,1.238,0.870,0.398,0.700,0.667,�k�k��,6.9,��
2020/01/18,23:00,0.694,0.986,0.652,1.236,0.869,0.399,0.700,0.667,�k��,7.4,��
2020/01/18,23:10,0.695,0.986,0.652,1.236,0.872,0.399,0.702,0.667,�k�k��,6.0,��
2020/01/18,23:20,0.694,0.986,0.652,1.238,0.869,0.399,0.701,0.666,�k��,6.1,��
2020/01/18,23:30,0.693,0.988,0.653,1.237,0.870,0.399,0.702,0.665,�k��,6.3,��
2020/01/18,23:40,0.694,0.987,0.652,1.237,0.870,0.401,0.701,0.667,�k��,6.9,��
2020/01/18,23:50,0.694,0.987,0.652,1.239,0.871,0.398,0.702,0.667,�k��,6.3,��
